Location: Sweet Grass
(48.9965°N, 111.9649°W)
Time: 06:29:29
(UTC+00:00)

EO-79 - Pass Details

Date: 01 April 2023
Orbit: 578 x 593 km, 98.0° (Epoch: 03 June)

Event Time Altitude Azimuth Distance (km) Brightness Sun altitude
Rises 09:02:59 0° 22° (NNE) 2,832 ? -32.9°
Reaches altitude 10° 09:05:22 10° 33° (NNE) 1,922 ? -32.8°
Enters shadow 09:07:17 22° 53° (NE) 1,304 ? -32.6°
